• In Kazakhstan
  • List of Countries
  • For 7 days
  • Water Temperature
  • Satellite Maps
  • Weather Map
  • News
  • Weather Widgets
  • user-avatar
    Login

    Hourly Weather Kansas City

    Today, 25 November, Saturday

    Time Temperature Precipitation Wind Pressure Humidity
    00:00 +12°C° 0 mm 5 mps 733 mmHg 52%
    01:00 +10°C° 0 mm 5 mps 734 mmHg 53%
    02:00 +10°C° 0 mm 4 mps 735 mmHg 53%
    03:00 +8°C° 0 mm 4 mps 735 mmHg 54%
    04:00 +8°C° 0 mm 3 mps 736 mmHg 54%
    05:00 +8°C° 0 mm 3 mps 736 mmHg 55%
    06:00 +7°C° 0 mm 3 mps 737 mmHg 56%
    07:00 +8°C° 0 mm 3 mps 738 mmHg 54%
    08:00 +8°C° 0 mm 3 mps 738 mmHg 51%
    09:00 +9°C° 0 mm 3 mps 739 mmHg 49%
    10:00 +11°C° 0 mm 3 mps 739 mmHg 44%
    11:00 +13°C° 0 mm 2 mps 740 mmHg 40%
    12:00 +15°C° 0 mm 2 mps 740 mmHg 35%
    13:00 +15°C° 0 mm 2 mps 740 mmHg 34%
    14:00 +15°C° 0 mm 2 mps 740 mmHg 32%
    15:00 +16°C° 0 mm 1 mps 740 mmHg 31%
    16:00 +14°C° 0 mm 1 mps 740 mmHg 35%
    17:00 +13°C° 0 mm 1 mps 740 mmHg 38%
    18:00 +10°C° 0 mm 0 mps 740 mmHg 42%
    19:00 +11°C° 0 mm 1 mps 740 mmHg 43%
    20:00 +10°C° 0 mm 1 mps 741 mmHg 43%
    21:00 +10°C° 0 mm 1 mps 741 mmHg 44%
    22:00 +9°C° 0 mm 2 mps 741 mmHg 45%
    23:00 +8°C° 0 mm 2 mps 741 mmHg 46%

    Tomorrow, 26 November, Sunday

    Time Temperature Precipitation Wind Pressure Humidity
    00:00 +8°C° 0 mm 2 mps 741 mmHg 47%
    01:00 +8°C° 0 mm 2 mps 741 mmHg 48%
    02:00 +7°C° 0 mm 2 mps 742 mmHg 49%
    03:00 +7°C° 0 mm 2 mps 742 mmHg 50%
    04:00 +7°C° 0 mm 2 mps 741 mmHg 51%
    05:00 +7°C° 0 mm 2 mps 741 mmHg 52%
    06:00 +5°C° 0 mm 3 mps 741 mmHg 52%
    07:00 +7°C° 0 mm 3 mps 741 mmHg 51%
    08:00 +7°C° 0 mm 4 mps 741 mmHg 49%
    09:00 +8°C° 0 mm 4 mps 742 mmHg 47%
    10:00 +10°C° 0 mm 5 mps 741 mmHg 44%
    11:00 +13°C° 0 mm 5 mps 741 mmHg 40%
    12:00 +15°C° 0 mm 6 mps 740 mmHg 36%
    13:00 +15°C° 0 mm 6 mps 739 mmHg 36%
    14:00 +16°C° 0 mm 6 mps 739 mmHg 36%
    15:00 +16°C° 0 mm 6 mps 738 mmHg 35%
    16:00 +14°C° 0 mm 5 mps 738 mmHg 40%
    17:00 +13°C° 0 mm 4 mps 737 mmHg 44%
    18:00 +11°C° 0 mm 4 mps 737 mmHg 48%
    19:00 +11°C° 0 mm 4 mps 737 mmHg 51%
    20:00 +11°C° 0 mm 4 mps 737 mmHg 54%
    21:00 +10°C° 0 mm 4 mps 737 mmHg 56%
    22:00 +10°C° 0 mm 4 mps 737 mmHg 60%
    23:00 +10°C° 0 mm 4 mps 736 mmHg 64%

    Day after tomorrow, 27 November, Monday

    Time Temperature Precipitation Wind Pressure Humidity
    00:00 +9°C° 0 mm 3 mps 736 mmHg 67%
    01:00 +9°C° 0 mm 3 mps 736 mmHg 71%
    02:00 +8°C° 0 mm 4 mps 736 mmHg 74%
    03:00 +8°C° 0 mm 4 mps 736 mmHg 78%
    04:00 +8°C° 0 mm 4 mps 735 mmHg 80%
    05:00 +7°C° 0 mm 4 mps 735 mmHg 82%
    06:00 +7°C° 0 mm 4 mps 735 mmHg 84%
    07:00 +8°C° 0 mm 4 mps 735 mmHg 82%
    08:00 +9°C° 0 mm 5 mps 735 mmHg 79%
    09:00 +10°C° 0 mm 6 mps 735 mmHg 76%
    10:00 +11°C° 0 mm 6 mps 734 mmHg 70%
    11:00 +14°C° 0 mm 6 mps 734 mmHg 64%
    12:00 +16°C° 0 mm 6 mps 733 mmHg 58%
    13:00 +17°C° 0 mm 7 mps 733 mmHg 56%
    14:00 +17°C° 0 mm 7 mps 732 mmHg 55%
    15:00 +18°C° 0 mm 7 mps 731 mmHg 54%
    16:00 +17°C° 0 mm 7 mps 731 mmHg 58%
    17:00 +16°C° 0 mm 7 mps 730 mmHg 62%
    18:00 +15°C° 0 mm 7 mps 730 mmHg 67%
    19:00 +15°C° 0 mm 7 mps 730 mmHg 68%
    20:00 +15°C° 0 mm 8 mps 730 mmHg 69%
    21:00 +15°C° 0 mm 8 mps 730 mmHg 70%
    22:00 +15°C° 0 mm 8 mps 730 mmHg 72%
    23:00 +13°C° 0 mm 8 mps 730 mmHg 73%

    28 November, Tuesday

    Time Temperature Precipitation Wind Pressure Humidity
    00:00 +13°C° 0 mm 8 mps 730 mmHg 74%
    01:00 +13°C° 0 mm 8 mps 729 mmHg 76%
    02:00 +13°C° 0 mm 8 mps 729 mmHg 78%
    03:00 +13°C° 0 mm 8 mps 729 mmHg 79%
    04:00 +14°C° 0 mm 7 mps 729 mmHg 81%
    05:00 +14°C° 0 mm 6 mps 729 mmHg 82%
    06:00 +14°C° 0 mm 5 mps 729 mmHg 84%
    07:00 +14°C° 0 mm 5 mps 730 mmHg 83%
    08:00 +15°C° 0 mm 5 mps 731 mmHg 83%
    09:00 +15°C° 0 mm 5 mps 732 mmHg 82%
    10:00 +15°C° 0.1 mm 5 mps 733 mmHg 82%
    11:00 +14°C° 0.1 mm 5 mps 733 mmHg 81%
    12:00 +14°C° 0.1 mm 5 mps 734 mmHg 81%
    13:00 +13°C° 0.1 mm 5 mps 734 mmHg 74%
    14:00 +11°C° 0.1 mm 6 mps 735 mmHg 68%
    15:00 +10°C° 0.1 mm 6 mps 735 mmHg 61%
    16:00 +10°C° 0 mm 6 mps 736 mmHg 58%
    17:00 +9°C° 0 mm 6 mps 737 mmHg 55%
    18:00 +9°C° 0 mm 6 mps 738 mmHg 51%
    19:00 +9°C° 0 mm 6 mps 739 mmHg 48%
    20:00 +9°C° 0 mm 6 mps 740 mmHg 45%
    21:00 +9°C° 0 mm 6 mps 740 mmHg 42%
    22:00 +9°C° 0 mm 6 mps 740 mmHg 41%
    23:00 +9°C° 0 mm 6 mps 740 mmHg 40%

    29 November, Wednesday

    Time Temperature Precipitation Wind Pressure Humidity
    00:00 +9°C° 0 mm 5 mps 741 mmHg 39%
    01:00 +8°C° 0.1 mm 5 mps 741 mmHg 41%
    02:00 +8°C° 0.1 mm 5 mps 741 mmHg 43%
    03:00 +8°C° 0.1 mm 5 mps 740 mmHg 45%
    04:00 +7°C° 0.1 mm 5 mps 740 mmHg 47%
    05:00 +7°C° 0.1 mm 5 mps 740 mmHg 49%
    06:00 +7°C° 0.1 mm 4 mps 740 mmHg 52%
    07:00 +7°C° 0 mm 4 mps 740 mmHg 55%
    08:00 +7°C° 0 mm 4 mps 740 mmHg 58%
    09:00 +7°C° 0 mm 4 mps 740 mmHg 61%
    10:00 +7°C° 0 mm 4 mps 740 mmHg 64%
    11:00 +8°C° 0 mm 3 mps 739 mmHg 67%
    12:00 +9°C° 0 mm 2 mps 739 mmHg 70%
    13:00 +9°C° 0 mm 2 mps 739 mmHg 69%
    14:00 +10°C° 0 mm 2 mps 738 mmHg 69%
    15:00 +11°C° 0 mm 1 mps 738 mmHg 69%
    16:00 +10°C° 0 mm 2 mps 738 mmHg 71%
    17:00 +9°C° 0 mm 2 mps 738 mmHg 72%
    18:00 +9°C° 0 mm 2 mps 739 mmHg 73%
    19:00 +9°C° 0 mm 2 mps 739 mmHg 72%
    20:00 +9°C° 0 mm 2 mps 739 mmHg 71%
    21:00 +8°C° 0 mm 3 mps 739 mmHg 70%
    22:00 +8°C° 0 mm 3 mps 740 mmHg 68%
    23:00 +7°C° 0 mm 3 mps 740 mmHg 66%

    30 November, Thursday

    Time Temperature Precipitation Wind Pressure Humidity
    00:00 +5°C° 0 mm 3 mps 740 mmHg 64%
    01:00 +5°C° 0 mm 4 mps 741 mmHg 58%
    02:00 +5°C° 0 mm 4 mps 741 mmHg 52%
    03:00 +5°C° 0 mm 5 mps 741 mmHg 46%
    04:00 +5°C° 0 mm 5 mps 742 mmHg 46%
    05:00 +5°C° 0 mm 5 mps 742 mmHg 46%
    06:00 +4°C° 0 mm 6 mps 743 mmHg 46%
    07:00 +4°C° 0 mm 6 mps 744 mmHg 48%
    08:00 +4°C° 0 mm 6 mps 744 mmHg 49%
    09:00 +4°C° 0 mm 7 mps 745 mmHg 51%
    10:00 +4°C° 0 mm 6 mps 745 mmHg 46%
    11:00 +5°C° 0 mm 6 mps 746 mmHg 40%
    12:00 +7°C° 0 mm 6 mps 746 mmHg 35%
    13:00 +8°C° 0 mm 5 mps 746 mmHg 34%
    14:00 +8°C° 0 mm 5 mps 745 mmHg 32%
    15:00 +8°C° 0 mm 5 mps 745 mmHg 31%
    16:00 +7°C° 0 mm 4 mps 745 mmHg 34%
    17:00 +7°C° 0 mm 3 mps 745 mmHg 37%
    18:00 +5°C° 0 mm 2 mps 745 mmHg 40%
    19:00 +5°C° 0 mm 2 mps 745 mmHg 40%
    20:00 +5°C° 0 mm 2 mps 746 mmHg 41%
    21:00 +4°C° 0 mm 2 mps 746 mmHg 42%
    22:00 +4°C° 0 mm 2 mps 746 mmHg 44%
    23:00 +4°C° 0 mm 2 mps 746 mmHg 46%
    Show more